Regional Weather Roundup
Issued by NWS

Home | Current Version | Previous Version | Text Only | Print | Product List | Glossary Off
Versions: 1 2 3 4 5 6 7 8 9 10 11 12 13 14 15 16 17 18 19 20 21 22 23 24 25 26 27

000
ASUS45 KBOU 160206
RWRCO

WEATHER ROUNDUP FOR COLORADO
NATIONAL WEATHER SERVICE DENVER/BOULDER CO
800 PM MDT TUE APR 15 2014

NOTE: "FAIR" INDICATES FEW OR NO CLOUDS BELOW 12000 FEET WITH NO
SIGNIFICANT WEATHER AND/OR OBSTRUCTIONS TO VISIBILITY.

COZ001>005-013-030-031-160300-
...NORTHWEST COLORADO...

CITY           SKY/WX    TMP DP  RH WIND       PRES   REMARKS
CRAIG          CLOUDY    50  19  29 SW14G20   29.78F
HAYDEN         CLOUDY    48  21  34 SW12      29.81F
MEEKER         CLOUDY    51  16  24 SW17      29.80F
MOUNT WERNER   CLOUDY    34  10  37 SW18      29.92F WCI  23
STEAMBOAT SPGS CLOUDY    47  16  28 CALM      29.81F
WALDEN         MOCLDY    37  19  48 SW16G25   29.83S
$$

COZ006>008-011-160300-
...WEST CENTRAL VALLEYS...

CITY           SKY/WX    TMP DP  RH WIND       PRES   REMARKS
GRAND JUNCTION CLEAR     51  31  46 CALM      29.82F
MONTROSE       PTCLDY    57  13  17 SW6       29.89R
EAGLE          MOCLDY    50  18  27 SW10      29.86F
RIFLE          CLOUDY    55  21  26 W13       29.82F
DELTA          PTCLDY    57  25  29 CALM      29.85S
NUCLA            N/A     54   7  15 S12       29.92S
$$

COZ017>023-064>068-160300-
...SOUTHWEST COLORADO...

CITY           SKY/WX    TMP DP  RH WIND       PRES   REMARKS
DURANGO        MOCLDY    51  -4  10 W9        29.94F
CORTEZ         CLEAR     50  15  24 E8        29.92F
PAGOSA SPRINGS MOCLDY    50  -4  10 W9        29.97S
TELLURIDE      MOCLDY    43   3  19 CALM      30.01F
WOLF CREEK PAS MOCLDY    27   3  36 SW25G32   30.07F WCI  11
$$

COZ009-010-012-014-032>034-037-058>063-160300-
...CENTRAL COLORADO...

CITY           SKY/WX    TMP DP  RH WIND       PRES   REMARKS
ASPEN          PTCLDY    42  16  34 S6        29.90S
BUENA VISTA    PTCLDY    44   6  21 W7        29.89S
COPPER MTN     LGT SNOW  30  10  43 W25G37    29.98S WCI  16
BERTHOUD PASS  FAIR      21  12  68 W35G46    29.93S WCI   2
COTTONWOOD PAS PTCLDY    41   0  17 W21G39    29.91S
GUNNISON       MOCLDY    46   9  21 NW7       29.96S
KREMMLING      CLOUDY    46  10  23 SW10G16   29.86S
LEADVILLE      PTCLDY    34   9  35 W7        29.96R WCI  28
MONARCH PASS   MOCLDY    27   5  39 W38G49    30.11S WCI   9
SALIDA         PTCLDY    49   5  16 W7        29.95S
SUNLIGHT       CLOUDY    32  21  64 CALM      29.99F
WILKERSON PASS PTCLDY    32   3  29 SW12G23   29.95R WCI  23
$$

COZ069>075-160300-
...SAN LUIS VALLEY/SANGRE DE CRISTO MOUNTAINS...

CITY           SKY/WX    TMP DP  RH WIND       PRES   REMARKS
ALAMOSA        MOCLDY    48  14  25 SW18      29.89R
LA VETA PASS   PTCLDY    37  12  35 SW16G28   29.94F
SAGUACHE       MOCLDY    48   1  14 NW18G26   29.90S
$$

COZ035-036-038>040-160300-
...NORTHERN COLORADO FRONT RANGE...

CITY           SKY/WX    TMP DP  RH WIND       PRES   REMARKS
DENVER INTL AP MOCLDY    57  12  17 NW12      29.71R
DMNS CITY PARK   N/A     57  10  15 W8G14     29.71R
AURORA         MOCLDY    55  14  19 W8        29.72S
FRONT RANGE AP MOCLDY    52  23  32 NW12      29.72S
ERIE MUNI ARPT PTCLDY    54  19  26 E3        29.69R
BOULDER MUN AP PTCLDY    59  12  15 W14       29.69S
CENTENNIAL     MOCLDY    56   8  14 NW8       29.73R
BROOMFIELD     MOCLDY    57   9  14 W17G39    29.72R
FORT COLLINS   MOCLDY    55  19  24 SW8       29.70R
LONGMONT       MOCLDY    58  12  16 W23G32    29.70S
$$

COZ041-046-047-076>085-087-088-160300-
...PIKES PEAK/PALMER DIVIDE AND SOUTHERN FOOTHILLS...

CITY           SKY/WX    TMP DP  RH WIND       PRES   REMARKS
COLO. SPRINGS  MOCLDY    57   6  13 SW5       29.76S
A. F. ACADEMY  PTCLDY    52   7  16 W13G23    29.77S
ELLICOTT       NOT AVBL
FALCON         MOCLDY    49  11  21 W12       29.79S
FORT CARSON    MOCLDY    55  14  19 S13G26    29.74S
LIMON          MOCLDY    50  23  34 S9        29.71S
MONUMENT HILL  PTCLDY    43  19  39 W9        29.77F
TRINIDAD       PTCLDY    57  24  28 SW5       29.76S
$$

COZ042>045-048>051-090-091-160300-
...NORTHEAST COLORADO...

CITY           SKY/WX    TMP DP  RH WIND       PRES   REMARKS
GREELEY ARPT   MOCLDY    57  23  26 W10       29.67F
AKRON          CLEAR     51  33  50 S8        29.68F
BURLINGTON     MOCLDY    48  21  34 S12       29.71F
WRAY           CLEAR     55  25  31 S7        29.68F
STERLING       CLEAR     55  37  50 SW10      29.65F
HOLYOKE        CLEAR     52  32  46 S12       29.68R
FORT MORGAN    NOT AVBL
$$

COZ086-089-092>099-160300-
...SOUTHEAST COLORADO...

CITY           SKY/WX    TMP DP  RH WIND       PRES   REMARKS
PUEBLO         MOCLDY    62  11  13 NW21      29.69F
LA JUNTA       MOCLDY    61  27  27 S5        29.67F
LAMAR          MOCLDY    59  26  28 S15       29.67F
SPRINGFIELD    NOT AVBL
$$



USA.gov is the U.S. government's official web portal to all federal, state and local government web resources and services.